DLH7YA EDDF-EPWA

Flight info

Callsign DLH7YA
Flight time 1h 22m
Altitude 37000
Route TOBAK3W TOBAK N858 SWALM T201 TAMEB DCT NEVKO DCT POZUM DCT ADVAB DCT OBOKU DCT DOSIX P150 BIMPA
Aircraft A320/M-SDE2E3FGIJ1LORWXYZ/HB1

Departure

Time 2026-05-07 19:09
Airport Frankfurt Main Airport (EDDF)

Arrival

Time 2026-05-07 20:32
Airport Warsaw Chopin Airport (EPWA)
Time Latitude Longitude Altitude Speed Heading
2026-05-07 18:22 50.04920 8.59186 365 ft 0 kts 340°
2026-05-07 18:52 50.04907 8.59193 365 ft 4 kts 340°
2026-05-07 18:52 50.04882 8.59208 368 ft 4 kts 340°
2026-05-07 18:52 50.04856 8.59222 370 ft 4 kts 340°
2026-05-07 18:53 50.04844 8.59229 368 ft 0 kts 340°
2026-05-07 18:55 50.04850 8.59223 368 ft 4 kts 322°
2026-05-07 18:55 50.04843 8.59171 368 ft 7 kts 238°
2026-05-07 18:55 50.04806 8.59077 370 ft 12 kts 238°
2026-05-07 18:56 50.04775 8.58965 368 ft 11 kts 249°
2026-05-07 18:56 50.04747 8.58851 368 ft 13 kts 249°
2026-05-07 18:56 50.04707 8.58697 370 ft 18 kts 247°
2026-05-07 18:56 50.04657 8.58494 374 ft 21 kts 250°
2026-05-07 18:57 50.04608 8.58290 370 ft 19 kts 250°
2026-05-07 18:57 50.04563 8.58101 365 ft 18 kts 250°
2026-05-07 18:57 50.04531 8.57968 365 ft 11 kts 249°
2026-05-07 18:57 50.04517 8.57910 364 ft 5 kts 249°
2026-05-07 18:58 50.04504 8.57855 365 ft 5 kts 249°
2026-05-07 18:58 50.04486 8.57781 364 ft 10 kts 250°
2026-05-07 18:58 50.04451 8.57632 370 ft 19 kts 250°
2026-05-07 18:58 50.04396 8.57400 367 ft 26 kts 250°
2026-05-07 18:59 50.04330 8.57127 361 ft 28 kts 249°
2026-05-07 18:59 50.04266 8.56859 363 ft 20 kts 250°
2026-05-07 18:59 50.04219 8.56660 358 ft 20 kts 249°
2026-05-07 18:59 50.04170 8.56458 359 ft 20 kts 249°
2026-05-07 19:00 50.04123 8.56260 359 ft 19 kts 250°
2026-05-07 19:00 50.04077 8.56065 357 ft 20 kts 249°
2026-05-07 19:00 50.04026 8.55857 350 ft 20 kts 249°
2026-05-07 19:00 50.03979 8.55659 353 ft 20 kts 249°
2026-05-07 19:01 50.03940 8.55503 349 ft 11 kts 238°
2026-05-07 19:01 50.03874 8.55496 354 ft 10 kts 158°
2026-05-07 19:01 50.03859 8.55505 354 ft 0 kts 159°
2026-05-07 19:07 50.03854 8.55508 352 ft 4 kts 159°
2026-05-07 19:07 50.03799 8.55540 353 ft 9 kts 159°
2026-05-07 19:07 50.03773 8.55590 354 ft 5 kts 83°
2026-05-07 19:08 50.03778 8.55618 351 ft 0 kts 70°
2026-05-07 19:08 50.03778 8.55620 349 ft 3 kts 70°
2026-05-07 19:08 50.03851 8.55928 351 ft 66 kts 70°
2026-05-07 19:09 50.04092 8.56933 363 ft 129 kts 70°
2026-05-07 19:09 50.04446 8.58432 650 ft 153 kts 70°
2026-05-07 19:09 50.04792 8.60001 1353 ft 154 kts 71°
2026-05-07 19:09 50.05155 8.61623 1862 ft 169 kts 69°
2026-05-07 19:10 50.05572 8.63460 2206 ft 191 kts 69°
2026-05-07 19:10 50.05873 8.64807 2438 ft 207 kts 69°
2026-05-07 19:10 50.06374 8.67034 2931 ft 224 kts 69°
2026-05-07 19:10 50.06949 8.69293 3812 ft 227 kts 59°
2026-05-07 19:11 50.07940 8.71209 4634 ft 231 kts 39°
2026-05-07 19:11 50.09367 8.72587 5091 ft 254 kts 22°
2026-05-07 19:11 50.11037 8.73674 5825 ft 264 kts 21°
2026-05-07 19:11 50.12751 8.74800 6700 ft 270 kts 21°
2026-05-07 19:12 50.14497 8.75968 7548 ft 276 kts 22°
2026-05-07 19:12 50.16271 8.77165 8430 ft 280 kts 22°
2026-05-07 19:12 50.18071 8.78380 9310 ft 284 kts 22°
2026-05-07 19:12 50.19896 8.79623 10179 ft 289 kts 22°
2026-05-07 19:13 50.21802 8.80902 10584 ft 310 kts 22°
2026-05-07 19:13 50.23847 8.82276 10994 ft 327 kts 22°
2026-05-07 19:13 50.25974 8.83632 11722 ft 333 kts 16°
2026-05-07 19:13 50.28255 8.84389 12111 ft 336 kts
2026-05-07 19:14 50.30578 8.84305 12266 ft 334 kts 351°
2026-05-07 19:14 50.32879 8.83789 12454 ft 334 kts 351°
2026-05-07 19:14 50.35188 8.83277 12544 ft 335 kts 351°
2026-05-07 19:14 50.37505 8.82776 12695 ft 339 kts 351°
2026-05-07 19:15 50.39852 8.82272 13526 ft 341 kts 351°
2026-05-07 19:15 50.42217 8.81778 14276 ft 345 kts 351°
2026-05-07 19:15 50.44608 8.81269 14978 ft 348 kts 351°
2026-05-07 19:15 50.47024 8.80752 15686 ft 352 kts 351°
2026-05-07 19:16 50.49462 8.80225 16391 ft 355 kts 351°
2026-05-07 19:16 50.51923 8.79874 17078 ft 360 kts 360°
2026-05-07 19:16 50.54432 8.80437 17755 ft 366 kts 14°
2026-05-07 19:16 50.56795 8.82005 18422 ft 372 kts 30°
2026-05-07 19:17 50.58849 8.84515 19004 ft 378 kts 45°
2026-05-07 19:17 50.60434 8.87833 19592 ft 383 kts 59°
2026-05-07 19:17 50.61719 8.91526 20187 ft 386 kts 61°
2026-05-07 19:17 50.62998 8.95263 20786 ft 389 kts 61°
2026-05-07 19:18 50.64293 8.99027 21376 ft 393 kts 60°
2026-05-07 19:18 50.65605 9.02823 21969 ft 396 kts 60°
2026-05-07 19:18 50.66930 9.06645 22561 ft 400 kts 60°
2026-05-07 19:18 50.68265 9.10507 23156 ft 403 kts 60°
2026-05-07 19:19 50.69613 9.14412 23492 ft 406 kts 60°
2026-05-07 19:19 50.70948 9.18334 23615 ft 406 kts 63°
2026-05-07 19:19 50.71997 9.22473 23713 ft 407 kts 73°
2026-05-07 19:19 50.72697 9.26804 23807 ft 408 kts 77°
2026-05-07 19:20 50.73345 9.31190 24164 ft 412 kts 76°
2026-05-07 19:20 50.74006 9.35599 24694 ft 414 kts 76°
2026-05-07 19:20 50.74672 9.40026 25198 ft 416 kts 76°
2026-05-07 19:20 50.75343 9.44473 25711 ft 417 kts 76°
2026-05-07 19:21 50.76008 9.48938 26187 ft 419 kts 76°
2026-05-07 19:21 50.76680 9.53426 26639 ft 421 kts 76°
2026-05-07 19:21 50.77357 9.57946 27083 ft 424 kts 76°
2026-05-07 19:21 50.78024 9.62490 27517 ft 426 kts 76°
2026-05-07 19:22 50.78698 9.67066 27927 ft 429 kts 76°
2026-05-07 19:22 50.79381 9.71651 28078 ft 429 kts 76°
2026-05-07 19:22 50.80064 9.76241 28256 ft 429 kts 76°
2026-05-07 19:22 50.80737 9.80779 28414 ft 430 kts 76°
2026-05-07 19:23 50.81408 9.85400 28589 ft 431 kts 76°
2026-05-07 19:23 50.82084 9.90020 28753 ft 432 kts 76°
2026-05-07 19:23 50.82758 9.94658 28921 ft 433 kts 76°
2026-05-07 19:23 50.83432 9.99298 29047 ft 433 kts 76°
2026-05-07 19:24 50.84449 10.08693 29102 ft 435 kts 88°
2026-05-07 19:24 50.84057 10.18232 29098 ft 435 kts 95°
2026-05-07 19:25 50.83490 10.27758 29098 ft 435 kts 95°
2026-05-07 19:25 50.82930 10.37279 29097 ft 435 kts 95°
2026-05-07 19:26 50.82376 10.46779 29097 ft 433 kts 95°
2026-05-07 19:26 50.81805 10.56268 29100 ft 433 kts 95°
2026-05-07 19:27 50.81219 10.65745 29101 ft 433 kts 95°
2026-05-07 19:27 50.80997 10.75240 29102 ft 433 kts 84°
2026-05-07 19:28 50.81801 10.84676 29110 ft 433 kts 82°
2026-05-07 19:28 50.82626 10.94043 29157 ft 435 kts 82°
2026-05-07 19:29 50.83039 10.98781 29602 ft 435 kts 82°
2026-05-07 19:29 50.83448 11.03534 30009 ft 437 kts 82°
2026-05-07 19:29 50.83857 11.08310 30354 ft 439 kts 82°
2026-05-07 19:29 50.84266 11.13118 30650 ft 442 kts 82°
2026-05-07 19:30 50.84675 11.17950 30927 ft 445 kts 82°
2026-05-07 19:30 50.85081 11.22817 31191 ft 447 kts 82°
2026-05-07 19:30 50.85523 11.27700 31446 ft 450 kts 79°
2026-05-07 19:30 50.86306 11.32484 31793 ft 449 kts 70°
2026-05-07 19:31 50.87468 11.37069 32070 ft 450 kts 65°
2026-05-07 19:31 50.88717 11.41604 32099 ft 449 kts 65°
2026-05-07 19:31 50.91209 11.50704 32417 ft 451 kts 66°
2026-05-07 19:32 50.92441 11.55273 32580 ft 450 kts 66°
2026-05-07 19:32 50.93677 11.59825 32750 ft 450 kts 65°
2026-05-07 19:32 50.94920 11.64388 32910 ft 450 kts 66°
2026-05-07 19:32 50.96154 11.68953 33036 ft 451 kts 66°
2026-05-07 19:33 50.98604 11.78101 33101 ft 450 kts 66°
2026-05-07 19:33 51.01040 11.87238 33089 ft 450 kts 66°
2026-05-07 19:34 51.03482 11.96374 33098 ft 449 kts 66°
2026-05-07 19:34 51.05918 12.05544 33413 ft 451 kts 66°
2026-05-07 19:35 51.07126 12.10126 33781 ft 451 kts 66°
2026-05-07 19:35 51.08343 12.14725 34119 ft 451 kts 66°
2026-05-07 19:35 51.09563 12.19327 34406 ft 452 kts 66°
2026-05-07 19:35 51.10784 12.23945 34690 ft 453 kts 67°
2026-05-07 19:36 51.11997 12.28567 34979 ft 453 kts 67°
2026-05-07 19:36 51.13217 12.33202 35240 ft 454 kts 67°
2026-05-07 19:36 51.14432 12.37842 35507 ft 455 kts 67°
2026-05-07 19:36 51.15641 12.42492 35775 ft 455 kts 67°
2026-05-07 19:37 51.16855 12.47146 36037 ft 455 kts 67°
2026-05-07 19:37 51.18067 12.51808 36289 ft 456 kts 68°
2026-05-07 19:37 51.19279 12.56481 36536 ft 456 kts 67°
2026-05-07 19:37 51.20495 12.61150 36769 ft 456 kts 68°
2026-05-07 19:38 51.21682 12.65760 36985 ft 456 kts 68°
2026-05-07 19:38 51.22887 12.70434 37084 ft 455 kts 68°
2026-05-07 19:38 51.25295 12.79764 37084 ft 454 kts 68°
2026-05-07 19:39 51.27679 12.89096 37084 ft 454 kts 68°
2026-05-07 19:39 51.30041 12.98370 37082 ft 454 kts 68°
2026-05-07 19:40 51.32417 13.07730 37088 ft 454 kts 68°
2026-05-07 19:40 51.34776 13.17088 37080 ft 453 kts 68°
2026-05-07 19:41 51.37137 13.26434 37079 ft 453 kts 68°
2026-05-07 19:41 51.39493 13.35798 37073 ft 453 kts 69°
2026-05-07 19:42 51.41824 13.45178 37076 ft 453 kts 69°
2026-05-07 19:42 51.44170 13.54558 37070 ft 453 kts 69°
2026-05-07 19:43 51.46495 13.63972 37068 ft 454 kts 69°
2026-05-07 19:43 51.48818 13.73398 37081 ft 455 kts 69°
2026-05-07 19:44 51.51136 13.82851 37077 ft 455 kts 69°
2026-05-07 19:44 51.53076 13.92501 37077 ft 455 kts 76°
2026-05-07 19:45 51.54735 14.02240 37080 ft 455 kts 75°
2026-05-07 19:45 51.56409 14.12040 37071 ft 455 kts 76°
2026-05-07 19:46 51.58062 14.21853 37069 ft 455 kts 76°
2026-05-07 19:46 51.59725 14.31659 37069 ft 455 kts 75°
2026-05-07 19:47 51.61373 14.41479 37071 ft 455 kts 76°
2026-05-07 19:47 51.63013 14.51314 37084 ft 455 kts 76°
2026-05-07 19:48 51.64641 14.61156 37080 ft 455 kts 76°
2026-05-07 19:48 51.66269 14.70999 37070 ft 455 kts 76°
2026-05-07 19:49 51.67872 14.80848 37071 ft 455 kts 76°
2026-05-07 19:49 51.69497 14.90709 37062 ft 455 kts 76°
2026-05-07 19:50 51.71098 15.00584 37074 ft 455 kts 76°
2026-05-07 19:50 51.72690 15.10464 37071 ft 455 kts 76°
2026-05-07 19:51 51.74271 15.20350 37061 ft 455 kts 77°
2026-05-07 19:51 51.75844 15.30241 37057 ft 455 kts 77°
2026-05-07 19:52 51.77419 15.40150 37064 ft 456 kts 77°
2026-05-07 19:52 51.78971 15.50068 37069 ft 455 kts 77°
2026-05-07 19:53 51.80522 15.59993 37069 ft 456 kts 77°
2026-05-07 19:53 51.82062 15.69931 37078 ft 456 kts 77°
2026-05-07 19:54 51.83607 15.79870 37064 ft 456 kts 77°
2026-05-07 19:54 51.85139 15.89836 37066 ft 457 kts 78°
2026-05-07 19:55 51.86653 15.99819 37073 ft 457 kts 78°
2026-05-07 19:55 51.88172 16.09801 37075 ft 457 kts 78°
2026-05-07 19:56 51.89675 16.19793 37080 ft 457 kts 78°
2026-05-07 19:56 51.91176 16.29796 37083 ft 457 kts 78°
2026-05-07 19:57 51.92662 16.39744 37068 ft 458 kts 78°
2026-05-07 19:57 51.94132 16.49770 37074 ft 458 kts 78°
2026-05-07 19:58 51.95185 16.59902 37084 ft 455 kts 84°
2026-05-07 19:58 51.96092 16.70060 37086 ft 455 kts 84°
2026-05-07 19:59 51.96857 16.78565 37085 ft 455 kts 84°
2026-05-07 19:59 51.97757 16.88716 37061 ft 455 kts 84°
2026-05-07 20:00 51.98661 16.98875 37064 ft 455 kts 84°
2026-05-07 20:00 51.99541 17.08987 37064 ft 456 kts 85°
2026-05-07 20:01 52.00425 17.19173 37068 ft 456 kts 85°
2026-05-07 20:01 52.01302 17.29355 37068 ft 456 kts 85°
2026-05-07 20:02 52.02159 17.39556 37054 ft 456 kts 85°
2026-05-07 20:02 52.03023 17.49765 37063 ft 456 kts 85°
2026-05-07 20:03 52.03874 17.59979 37065 ft 456 kts 86°
2026-05-07 20:03 52.04712 17.70196 37067 ft 456 kts 86°
2026-05-07 20:04 52.05541 17.80415 37068 ft 457 kts 86°
2026-05-07 20:04 52.06376 17.90644 37069 ft 456 kts 86°
2026-05-07 20:05 52.07190 18.00873 37048 ft 456 kts 87°
2026-05-07 20:05 52.07983 18.11101 37059 ft 456 kts 86°
2026-05-07 20:06 52.08779 18.21279 37059 ft 457 kts 87°
2026-05-07 20:06 52.09569 18.31521 37064 ft 457 kts 87°
2026-05-07 20:07 52.10341 18.41772 37063 ft 457 kts 87°
2026-05-07 20:07 52.11121 18.52089 37045 ft 456 kts 87°
2026-05-07 20:08 52.11501 18.57143 36758 ft 456 kts 87°
2026-05-07 20:08 52.11877 18.62268 36125 ft 456 kts 88°
2026-05-07 20:08 52.12250 18.67370 35605 ft 453 kts 88°
2026-05-07 20:08 52.12625 18.72453 35071 ft 451 kts 89°
2026-05-07 20:09 52.12992 18.77506 34532 ft 449 kts 90°
2026-05-07 20:09 52.13351 18.82549 33962 ft 448 kts 90°
2026-05-07 20:09 52.13710 18.87568 33361 ft 445 kts 90°
2026-05-07 20:10 52.14422 18.97490 32305 ft 437 kts 91°
2026-05-07 20:10 52.14761 19.02385 31786 ft 434 kts 91°
2026-05-07 20:10 52.15102 19.07248 31258 ft 430 kts 91°
2026-05-07 20:10 52.15437 19.12062 30762 ft 427 kts 91°
2026-05-07 20:11 52.15767 19.16844 30259 ft 424 kts 91°
2026-05-07 20:11 52.16093 19.21598 29706 ft 421 kts 91°
2026-05-07 20:11 52.16422 19.26312 29222 ft 416 kts 91°
2026-05-07 20:11 52.16743 19.30967 28741 ft 412 kts 91°
2026-05-07 20:12 52.17053 19.35584 28262 ft 408 kts 91°
2026-05-07 20:12 52.17358 19.40154 27785 ft 404 kts 91°
2026-05-07 20:12 52.17662 19.44689 27303 ft 401 kts 91°
2026-05-07 20:12 52.17959 19.49200 26824 ft 399 kts 91°
2026-05-07 20:13 52.18257 19.53679 26336 ft 397 kts 91°
2026-05-07 20:13 52.18551 19.58136 25851 ft 395 kts 91°
2026-05-07 20:13 52.18840 19.62581 25349 ft 393 kts 91°
2026-05-07 20:13 52.19123 19.67004 24849 ft 392 kts 91°
2026-05-07 20:14 52.19409 19.71421 24334 ft 391 kts 91°
2026-05-07 20:14 52.19691 19.75820 23831 ft 390 kts 91°
2026-05-07 20:14 52.19975 19.80209 23280 ft 389 kts 91°
2026-05-07 20:14 52.20253 19.84585 22773 ft 386 kts 90°
2026-05-07 20:15 52.20527 19.88920 22295 ft 383 kts 90°
2026-05-07 20:15 52.20794 19.93232 21809 ft 381 kts 90°
2026-05-07 20:15 52.21060 19.97513 21334 ft 379 kts 90°
2026-05-07 20:15 52.21322 20.01770 20860 ft 377 kts 89°
2026-05-07 20:16 52.21580 20.06014 20391 ft 375 kts 89°
2026-05-07 20:16 52.21840 20.10232 19925 ft 373 kts 89°
2026-05-07 20:16 52.22099 20.14440 19457 ft 372 kts 89°
2026-05-07 20:16 52.22347 20.18572 19018 ft 371 kts 88°
2026-05-07 20:17 52.22598 20.22754 18564 ft 370 kts 88°
2026-05-07 20:17 52.22849 20.26932 18083 ft 370 kts 88°
2026-05-07 20:17 52.23096 20.31104 17617 ft 368 kts 88°
2026-05-07 20:17 52.23337 20.35232 17181 ft 361 kts 87°
2026-05-07 20:18 52.23570 20.39254 16766 ft 352 kts 87°
2026-05-07 20:18 52.23802 20.43227 16352 ft 351 kts 87°
2026-05-07 20:18 52.24026 20.47188 15943 ft 350 kts 87°
2026-05-07 20:18 52.24254 20.51130 15542 ft 349 kts 87°
2026-05-07 20:19 52.24478 20.55059 15138 ft 347 kts 87°
2026-05-07 20:19 52.24701 20.58981 14738 ft 346 kts 87°
2026-05-07 20:19 52.24931 20.62885 14355 ft 345 kts 86°
2026-05-07 20:19 52.25155 20.66784 13953 ft 344 kts 87°
2026-05-07 20:20 52.25369 20.70669 13492 ft 343 kts 86°
2026-05-07 20:20 52.25578 20.74533 13082 ft 341 kts 86°
2026-05-07 20:20 52.25781 20.78375 12670 ft 338 kts 86°
2026-05-07 20:20 52.25988 20.82172 12254 ft 332 kts 86°
2026-05-07 20:21 52.26191 20.85863 11853 ft 321 kts 86°
2026-05-07 20:21 52.26350 20.89448 11463 ft 311 kts 91°
2026-05-07 20:21 52.26216 20.92909 11088 ft 301 kts 101°
2026-05-07 20:21 52.25777 20.96185 10715 ft 291 kts 109°
2026-05-07 20:22 52.25077 20.99233 10349 ft 282 kts 117°
2026-05-07 20:22 52.24130 21.02071 10088 ft 290 kts 125°
2026-05-07 20:22 52.22921 21.04720 9990 ft 292 kts 133°
2026-05-07 20:22 52.21496 21.07068 9604 ft 289 kts 142°
2026-05-07 20:23 52.19902 21.09028 9164 ft 284 kts 149°
2026-05-07 20:23 52.18198 21.10613 8450 ft 281 kts 155°
2026-05-07 20:23 52.16469 21.12079 7738 ft 279 kts 155°
2026-05-07 20:23 52.14755 21.13543 7052 ft 277 kts 154°
2026-05-07 20:24 52.13116 21.14970 6841 ft 256 kts 154°
2026-05-07 20:24 52.11588 21.16309 6476 ft 246 kts 154°
2026-05-07 20:24 52.10097 21.17623 5937 ft 243 kts 154°
2026-05-07 20:24 52.08616 21.18918 5385 ft 240 kts 153°
2026-05-07 20:25 52.07146 21.20201 4708 ft 243 kts 153°
2026-05-07 20:25 52.05659 21.21499 4190 ft 239 kts 153°
2026-05-07 20:25 52.04203 21.22765 3678 ft 236 kts 153°
2026-05-07 20:25 52.02723 21.23831 3161 ft 230 kts 170°
2026-05-07 20:26 52.01166 21.23799 3011 ft 222 kts 196°
2026-05-07 20:26 51.99808 21.22702 2991 ft 218 kts 221°
2026-05-07 20:26 51.98898 21.20844 2985 ft 211 kts 245°
2026-05-07 20:26 51.98301 21.18686 2989 ft 209 kts 248°
2026-05-07 20:27 51.97948 21.16435 2989 ft 206 kts 271°
2026-05-07 20:27 51.98229 21.14182 2994 ft 205 kts 296°
2026-05-07 20:27 51.99055 21.12306 2991 ft 205 kts 317°
2026-05-07 20:27 52.00202 21.10968 2991 ft 199 kts 330°
2026-05-07 20:28 52.01390 21.09932 3012 ft 186 kts 331°
2026-05-07 20:28 52.02501 21.08967 2996 ft 177 kts 331°
2026-05-07 20:28 52.03583 21.08026 2966 ft 175 kts 332°
2026-05-07 20:28 52.04651 21.07099 2803 ft 173 kts 332°
2026-05-07 20:29 52.05715 21.06174 2584 ft 173 kts 333°
2026-05-07 20:29 52.06772 21.05256 2368 ft 172 kts 333°
2026-05-07 20:29 52.07811 21.04352 2122 ft 165 kts 333°
2026-05-07 20:29 52.08781 21.03507 1903 ft 151 kts 334°
2026-05-07 20:30 52.09666 21.02735 1719 ft 140 kts 334°
2026-05-07 20:30 52.10513 21.01999 1513 ft 137 kts 334°
2026-05-07 20:30 52.11347 21.01278 1329 ft 136 kts 334°
2026-05-07 20:30 52.12181 21.00561 1132 ft 136 kts 333°
2026-05-07 20:31 52.13004 20.99814 936 ft 135 kts 334°
2026-05-07 20:31 52.13837 20.99101 727 ft 135 kts 332°
2026-05-07 20:31 52.14654 20.98372 559 ft 134 kts 332°
2026-05-07 20:31 52.15481 20.97667 390 ft 134 kts 333°
2026-05-07 20:32 52.16246 20.97000 336 ft 108 kts 331°
2026-05-07 20:32 52.16718 20.96589 337 ft 36 kts 333°
2026-05-07 20:32 52.16936 20.96510 336 ft 29 kts 359°
2026-05-07 20:32 52.17058 20.96522 338 ft 16 kts 14°
2026-05-07 20:33 52.17126 20.96679 336 ft 19 kts 62°
2026-05-07 20:33 52.17162 20.96799 337 ft 10 kts 79°
2026-05-07 20:33 52.17123 20.96870 339 ft 9 kts 151°
2026-05-07 20:33 52.17070 20.96916 336 ft 9 kts 152°
2026-05-07 20:34 52.17018 20.96962 336 ft 8 kts 152°
2026-05-07 20:34 52.16977 20.97017 335 ft 7 kts 106°
2026-05-07 20:34 52.16988 20.97090 338 ft 6 kts 70°
2026-05-07 20:34 52.16998 20.97137 336 ft 2 kts 70°
2026-05-07 20:35 52.17000 20.97145 337 ft 0 kts 70°
2026-05-07 20:35 52.17000 20.97146 337 ft 0 kts 70°